Flag for Poland Weather past 2 weeks in Szczecin, Poland

Now
50 °F

Fog.


Feels Like: 49 °F
Forecast: 42 / 51 °F
Wind: 3 mph from East

Location: Szczecin Airport

Current Time: Apr 27, 2015 at 8:44:10 AM

Latest Report: Apr 27, 2015 at 8:00 AM


Visibility: 0 mi

Pressure: 29.62 "Hg

Humidity: 100%

Dew point: 50 °F

Location of SzczecinLocation

Historic Weather in Szczecin — Graph

°F

Szczecin temperature yesterday

Maximum temperature yesterday: 64 °F (at 2:30 PM)
Minimum temperature yesterday: 50 °F (at 10:00 PM)
Average temperature yesterday: 55 °F

Past Weeks' High & Low Weather Summary

 TemperatureHumidityPressure
High72 °F (Apr 25, 5:30 PM)100% (Apr 18, 3:00 AM)30.36 "Hg (Apr 18, 3:00 AM)
Low32 °F (Apr 18, 2:30 AM)26% (Apr 15, 6:30 PM)29.62 "Hg (Apr 27, 6:30 AM)
Average49 °F66%30.03 "Hg
* Reported Apr 12 7:00 AM — Apr 27 7:30 AM, Szczecin, Weather by CustomWeather, © 2015

Note: Actual official high and low records may vary slightly from our data, if they occured in-between our weather recording intervals... More about our weather records

Advertising

Szczecin weather history for previous 24 hours

 ConditionsComfort  
Time TempWeatherWind HumidityBarometerVisibility
7:30 AM
Mon, Apr 27
50 °FFog.3 mph94%29.62 "Hg0 mi
7:00 AM50 °FFog.2 mph94%29.65 "Hg0 mi
6:30 AM48 °FFog.2 mph87%29.62 "Hg0 mi
6:00 AM48 °FFog.2 mph100%29.65 "Hg1 mi
5:30 AM48 °FFog.2 mph100%29.65 "Hg1 mi
5:00 AM48 °FFog.No wind94%29.65 "Hg1 mi
4:30 AM48 °FFog.No wind94%29.65 "Hg1 mi
4:00 AM48 °FFog.No wind100%29.65 "Hg1 mi
3:30 AM48 °FFog.No wind100%29.65 "Hg2 mi
3:00 AM48 °FFog.7 mph100%29.68 "Hg2 mi
2:30 AM48 °FFog.3 mph100%29.65 "Hg2 mi
2:00 AM50 °FFog.5 mph94%29.65 "Hg3 mi
1:30 AM50 °FFog.5 mph100%29.68 "Hg3 mi
1:00 AM50 °FFog.3 mph100%29.68 "Hg3 mi
12:30 AM52 °FClear.3 mph94%29.68 "Hg4 mi
12:00 AM54 °FClear.3 mph94%29.68 "Hg4 mi
11:30 PM
Sun, Apr 26
52 °FClear.2 mph100%29.68 "Hg4 mi
11:00 PM50 °FClear.5 mph100%29.68 "Hg4 mi
10:30 PM50 °FClear.3 mph94%29.68 "Hg5 mi
10:00 PM50 °FClear.3 mph94%29.68 "Hg5 mi
9:30 PM52 °FClear.3 mph88%29.68 "Hg10 mi
9:00 PM55 °FSunny.5 mph82%29.68 "Hg10 mi
8:30 PM55 °FSunny.3 mph82%29.68 "Hg10 mi
8:00 PM55 °FSunny.5 mph82%29.68 "Hg10 mi
7:30 PM57 °FSunny.7 mph82%29.68 "Hg10 mi
7:00 PM59 °FSunny.3 mph77%29.68 "Hg10 mi
6:30 PM57 °FSunny.1 mph82%29.68 "Hg10 mi
6:00 PM57 °FSunny.No wind82%29.71 "Hg10 mi
5:30 PM55 °FLight rain. Partly sunny.3 mph94%29.71 "HgN/A
5:00 PM55 °FLight rain. Partly sunny.5 mph88%29.71 "HgN/A
4:30 PM59 °FLight rain. Partly sunny.6 mph72%29.71 "HgN/A
4:00 PM63 °FPassing clouds.7 mph52%29.71 "HgN/A
3:30 PM63 °FPassing clouds.6 mph49%29.71 "HgN/A
3:00 PM63 °FPassing clouds.3 mph52%29.71 "HgN/A
2:30 PM64 °FPassing clouds.3 mph49%29.71 "HgN/A
2:00 PM63 °FScattered clouds.6 mph52%29.71 "HgN/A
1:30 PM61 °FScattered clouds.5 mph55%29.74 "HgN/A
1:00 PM61 °FScattered clouds.5 mph59%29.74 "HgN/A
12:30 PM59 °FScattered clouds.3 mph63%29.74 "HgN/A
12:00 PM59 °FBroken clouds.5 mph68%29.74 "HgN/A
11:30 AM57 °FBroken clouds.9 mph67%29.74 "HgN/A
11:00 AM57 °FBroken clouds.6 mph72%29.74 "HgN/A
10:30 AM55 °FBroken clouds.9 mph77%29.74 "Hg5 mi
10:00 AM54 °FFog.9 mph88%29.74 "Hg3 mi
9:30 AM54 °FFog.7 mph88%29.74 "Hg3 mi
9:00 AM54 °FFog.8 mph88%29.74 "Hg3 mi
8:30 AM54 °FFog.7 mph94%29.74 "Hg3 mi
8:00 AM54 °FFog.6 mph94%29.74 "Hg3 mi
Weather by CustomWeather, © 2015

See weather overviewHow to use our weather pages